Weather History for Spirit of St Louis, MO

Change the Weather History Date:

Thursday, November 1, 2012

  Actual Average Record
Temperature  
Mean Temperature 48 °F -  
Max Temperature 64 °F 59 °F 82 °F (2000)
Min Temperature 32 °F 39 °F 27 °F (2006)
Degree Days  
Heating Degree Days 18    
Moisture  
Dew Point 33 °F    
Average Humidity 64    
Maximum Humidity 89    
Minimum Humidity 38    
Precipitation  
Precipitation 0.00 in - - ()
Sea Level Pressure  
Sea Level Pressure 29.96 in    
Wind  
Wind Speed 2 mph (WSW)    
Max Wind Speed 8 mph    
Max Gust Speed -    
Visibility 10 miles    
Events      
Averages and records for this station are not official NWS values.
T = Trace of Precipitation, MM = Missing Value Source: NWS Daily Summary

Daily Weather History Graph

Daily Weather History Graph

Search for Another Location

Airport:

Trip Planner

Search our weather history database for the weather conditions in past years. The results will help you decide how hot, cold, wet, or windy it might be!

Date:

Astronomy

Nov. 01, 2012 Rise Set
Actual Time 7:29 AM CDT 6:01 PM CDT
Civil Twilight 7:02 AM CDT 6:29 PM CDT
Nautical Twilight 6:30 AM CDT 7:00 PM CDT
Astronomical Twilight 5:59 AM CDT 7:31 PM CDT
Moon 8:00 PM CDT (11/1) 10:01 AM CDT (11/1)
Length of Visible Light 11h 27m
Length of Day
10h 31m
Waning Gibbous, 93% of the Moon is Illuminated
Nov 1
Waning Gibbous
Nov 6
Last Quarter
Nov 13
New
Nov 20
First Quarter
Nov 28
Full

Hourly Weather History & Observations

Time (CDT) Temp. Windchill Dew Point Humidity Pressure Visibility Wind Dir Wind Speed Gust Speed Precip Events Conditions
12:54 AM 36.0 °F 32.1 °F 23.0 °F 59% 30.01 in 10.0 mi West 4.6 mph - N/A   Clear
1:54 AM 35.1 °F - 24.1 °F 64% 30.01 in 10.0 mi Calm Calm - N/A   Clear
2:54 AM 33.1 °F 30.0 °F 26.1 °F 75% 30.01 in 10.0 mi NW 3.5 mph - N/A   Clear
3:54 AM 32.0 °F - 26.1 °F 79% 30.01 in 10.0 mi Calm Calm - N/A   Clear
4:54 AM 32.0 °F - 25.0 °F 75% 30.00 in 10.0 mi Calm Calm - N/A   Clear
5:54 AM 32.0 °F - 25.0 °F 75% 30.02 in 10.0 mi Calm Calm - N/A   Clear
6:54 AM 32.0 °F - 26.1 °F 79% 30.03 in 10.0 mi Calm Calm - N/A   Mostly Cloudy
7:54 AM 32.0 °F 28.7 °F 28.0 °F 85% 30.03 in 10.0 mi SSW 3.5 mph - N/A   Mostly Cloudy
8:54 AM 37.9 °F - 30.0 °F 73% 30.03 in 10.0 mi Calm Calm - N/A   Clear
9:54 AM 45.0 °F - 30.0 °F 56% 30.03 in 10.0 mi Calm Calm - N/A   Mostly Cloudy
10:54 AM 50.0 °F - 32.0 °F 50% 30.03 in 10.0 mi West 5.8 mph - N/A   Overcast
11:54 AM 57.0 °F - 33.1 °F 40% 30.01 in 10.0 mi WSW 6.9 mph - N/A   Mostly Cloudy
12:54 PM 61.0 °F - 35.1 °F 38% 29.97 in 10.0 mi WSW 6.9 mph - N/A   Mostly Cloudy
1:54 PM 61.0 °F - 35.1 °F 38% 29.94 in 9.0 mi WSW 8.1 mph - N/A   Overcast
2:54 PM 61.0 °F - 37.0 °F 41% 29.92 in 7.0 mi SW 8.1 mph - N/A   Overcast
3:54 PM 62.1 °F - 37.0 °F 39% 29.90 in 10.0 mi SSW 4.6 mph - N/A   Mostly Cloudy
4:54 PM 63.0 °F - 37.9 °F 40% 29.89 in 10.0 mi Calm Calm - N/A   Mostly Cloudy
5:54 PM 55.9 °F - 42.1 °F 60% 29.88 in 10.0 mi Calm Calm - N/A   Scattered Clouds
6:54 PM 48.9 °F - 39.9 °F 71% 29.89 in 10.0 mi Calm Calm - N/A   Clear
7:54 PM 46.9 °F - 39.0 °F 74% 29.89 in 10.0 mi Calm Calm - N/A   Clear
8:54 PM 45.0 °F - 37.9 °F 76% 29.89 in 10.0 mi Calm Calm - N/A   Clear
9:54 PM 43.0 °F - 37.9 °F 82% 29.91 in 10.0 mi Calm Calm - N/A   Clear
10:54 PM 43.0 °F - 37.9 °F 82% 29.90 in 10.0 mi Calm Calm - N/A   Clear
11:54 PM 39.0 °F - 36.0 °F 89% 29.91 in 10.0 mi Calm Calm - N/A   Clear